Back to catalog

CZ-4C DEB

AliveSSO
NORAD 37567·DEBRIS·🇨🇳 China

Launched Aug 9, 2010 from Taiyuan Satellite Launch Center

Loading…

Next Passes (next 24 hours)

TLE

FreshSource: Space-Track

Epoch: Sep 14, 2026, 12:02 UTC

1 37567U 10038C   26257.50190141  .00011184  00000-0  71904-3 0  9992
2 37567  97.7259  89.9973 0063687 277.5897 111.5799 15.06891908855984

Track CZ-4C DEB in real time with AllMySat

Download on the App Store